This is the latest recevied weather packets stored in our database for station/object JS2QVS-13. If no packets are shown the sender has not sent any weather packets the latest 10 day(s).
| Time | Temp. | Humidity | Pressure | Rain* | Wind** | Luminosity | Snow |
|---|---|---|---|---|---|---|---|
| 1777988862 | 16.67° C | 57% | 1019.1 hPa | 0 mm | - | - | - |
| 1777988262 | 16.67° C | 56% | 1018.9 hPa | 0 mm | - | - | - |
| 1777987662 | 16.67° C | 55% | 1018.9 hPa | 0 mm | - | - | - |
| 1777987062 | 16.67° C | 55% | 1019 hPa | 0 mm | - | - | - |
| 1777986462 | 17.22° C | 54% | 1019.1 hPa | 0 mm | - | - | - |
| 1777985861 | 17.22° C | 53% | 1019.2 hPa | 0 mm | - | - | - |
| 1777985261 | 17.22° C | 52% | 1019.3 hPa | 0 mm | - | - | - |
| 1777984661 | 17.22° C | 51% | 1019.3 hPa | 0 mm | - | - | - |
| 1777984063 | 17.22° C | 51% | 1019.2 hPa | 0 mm | - | - | - |
| 1777983463 | 17.22° C | 50% | 1019.1 hPa | 0 mm | - | - | - |
| 1777982863 | 17.78° C | 49% | 1018.9 hPa | 0 mm | - | - | - |
| 1777982262 | 17.78° C | 49% | 1018.9 hPa | 0 mm | - | - | - |
| 1777981662 | 17.78° C | 48% | 1018.7 hPa | 0 mm | - | - | - |
| 1777981062 | 17.78° C | 48% | 1018.8 hPa | 0 mm | - | - | - |
| 1777980462 | 17.78° C | 48% | 1018.7 hPa | 0 mm | - | - | - |
| 1777979862 | 18.33° C | 48% | 1018.5 hPa | 0 mm | - | - | - |
| 1777979262 | 18.33° C | 46% | 1018.5 hPa | 0 mm | - | - | - |
| 1777978662 | 18.33° C | 45% | 1018.4 hPa | 0 mm | - | - | - |
| 1777978062 | 18.33° C | 44% | 1018.3 hPa | 0 mm | - | - | - |
| 1777977461 | 18.33° C | 48% | 1018.1 hPa | 0 mm | - | - | - |
| 1777976861 | 18.33° C | 49% | 1018.1 hPa | 0 mm | - | - | - |
| 1777976261 | 18.33° C | 49% | 1017.9 hPa | 0 mm | - | - | - |
| 1777975661 | 18.33° C | 47% | 1017.9 hPa | 0 mm | - | - | - |
| 1777975063 | 18.33° C | 44% | 1017.8 hPa | 0 mm | - | - | - |
| 1777974462 | 18.33° C | 41% | 1017.8 hPa | 0 mm | - | - | - |
* Rain latest hour (hover to see other rain measurements)
** Current wind speed in m/s (hover to see current wind gust speed)